Flag for U.S.A. Weather past 2 weeks in Orange, California, U.S.A.

Now
73 °F

Passing clouds.


Feels Like: 77 °F
Forecast: 56 / 81 °F
Wind: 9 mph from Southwest

Location: John Wayne Airport-Orange County Airport

Current Time: Mar 29, 2015 at 2:23:35 PM

Latest Report: Mar 29, 2015 at 1:53 PM


Visibility: 10 mi

Pressure: 30.01 "Hg

Humidity: 51%

Dew point: 54 °F

Location of OrangeLocation

Historic Weather in Orange — Graph

°F

Orange temperature yesterday

Maximum temperature yesterday: 78 °F (at 2:53 PM)
Minimum temperature yesterday: 58 °F (at 6:53 AM)
Average temperature yesterday: 66 °F

Past Weeks' High & Low Weather Summary

 TemperatureHumidityPressure
High91 °F (Mar 14, 1:53 PM)93% (Mar 28, 4:53 AM)30.19 "Hg (Mar 28, 4:53 AM)
Low58 °F (Mar 24, 2:53 AM)11% (Mar 14, 1:53 PM)29.87 "Hg (Mar 16, 5:53 PM)
Average68 °F60%30.03 "Hg
* Reported Mar 14 12:53 PM — Mar 29 12:53 PM, Orange, Weather by CustomWeather, © 2015

Note: Actual official high and low records may vary slightly from our data, if they occured in-between our weather recording intervals... More about our weather records

Advertising

Orange weather history for previous 24 hours

 ConditionsComfort  
Time TempWeatherWind HumidityBarometerVisibility
12:53 PM
Sun, Mar 29
71 °FScattered clouds.8 mph55%30.03 "Hg10 mi
11:53 AM71 °FPartly sunny.10 mph59%30.04 "Hg10 mi
10:53 AM71 °FPartly sunny.5 mph55%30.04 "Hg10 mi
9:53 AM66 °FSunny.No wind65%30.05 "Hg8 mi
8:53 AM63 °FPartly sunny.No wind75%30.05 "Hg9 mi
7:53 AM60 °FOvercast.3 mph83%30.06 "Hg8 mi
6:53 AM61 °FOvercast.5 mph83%30.04 "Hg9 mi
5:53 AM61 °FLow clouds.No wind83%30.04 "Hg9 mi
4:53 AM61 °FLow clouds.No wind87%30.03 "Hg9 mi
3:53 AM61 °FLow clouds.No wind87%30.01 "Hg8 mi
2:53 AM60 °FPassing clouds.No wind90%30.02 "Hg8 mi
1:53 AM61 °FLow clouds.3 mph90%30.03 "Hg7 mi
12:53 AM61 °FFog.6 mph93%30.04 "Hg4 mi
11:53 PM
Sat, Mar 28
61 °FClear.3 mph90%30.04 "Hg7 mi
10:53 PM62 °FPassing clouds.No wind86%30.04 "Hg7 mi
9:53 PM62 °FPassing clouds.5 mph86%30.03 "Hg7 mi
8:53 PM63 °FPassing clouds.5 mph84%30.03 "Hg9 mi
7:53 PM64 °FPartly sunny.3 mph78%30.01 "Hg10 mi
6:53 PM67 °FPartly sunny.6 mph71%30.01 "Hg10 mi
5:53 PM73 °FScattered clouds.6 mph51%29.99 "Hg10 mi
4:53 PM74 °FPassing clouds.6 mph48%29.98 "Hg10 mi
3:53 PM75 °FPassing clouds.7 mph47%29.99 "Hg10 mi
2:53 PM78 °FPassing clouds.12 mph45%30.01 "Hg10 mi
Weather by CustomWeather, © 2015

See weather overviewHow to use our weather pages